Year,Month,Day,Hour,Minute,Value (Times are PST for temperature in C)
2011,05,29,00,00,11.30
2011,05,29,00,01,11.30
2011,05,29,00,02,11.30
2011,05,29,00,03,11.30
2011,05,29,00,04,11.30
2011,05,29,00,05,11.20
2011,05,29,00,06,11.20
2011,05,29,00,07,11.20
2011,05,29,00,08,11.20
2011,05,29,00,09,11.20
2011,05,29,00,10,11.20
2011,05,29,00,11,11.10
2011,05,29,00,12,11.10
2011,05,29,00,13,11.10
2011,05,29,00,14,11.10
2011,05,29,00,15,11.10
2011,05,29,00,16,11.10
2011,05,29,00,17,11.10
2011,05,29,00,18,11.10
2011,05,29,00,19,11.10
2011,05,29,00,20,11.10
2011,05,29,00,21,11.10
2011,05,29,00,22,11.10
2011,05,29,00,23,11.10
2011,05,29,00,24,11.10
2011,05,29,00,25,11.10
2011,05,29,00,26,11.10
2011,05,29,00,27,11.10
2011,05,29,00,28,11.10
2011,05,29,00,29,11.10
2011,05,29,00,30,11.10
2011,05,29,00,31,11.00
2011,05,29,00,32,11.00
2011,05,29,00,33,10.90
2011,05,29,00,34,10.90
2011,05,29,00,35,10.90
2011,05,29,00,36,10.90
2011,05,29,00,37,10.90
2011,05,29,00,38,10.90
2011,05,29,00,39,10.90
2011,05,29,00,40,10.90
2011,05,29,00,41,10.90
2011,05,29,00,42,10.90
2011,05,29,00,43,10.90
2011,05,29,00,44,10.90
2011,05,29,00,45,10.90
2011,05,29,00,46,10.90
2011,05,29,00,47,10.90
2011,05,29,00,48,10.90
2011,05,29,00,49,10.90
2011,05,29,00,50,10.90
2011,05,29,00,51,10.90
2011,05,29,00,52,10.90
2011,05,29,00,53,10.90
2011,05,29,00,54,10.90
2011,05,29,00,55,10.90
2011,05,29,00,56,10.90
2011,05,29,00,57,10.90
2011,05,29,00,58,10.90
2011,05,29,00,59,10.90
2011,05,29,01,00,10.90
2011,05,29,01,01,10.90
2011,05,29,01,02,10.90
2011,05,29,01,03,10.90
2011,05,29,01,04,10.90
2011,05,29,01,05,10.90
2011,05,29,01,06,10.90
2011,05,29,01,07,10.90
2011,05,29,01,08,10.90
2011,05,29,01,09,10.90
2011,05,29,01,10,10.90
2011,05,29,01,11,10.90
2011,05,29,01,12,10.90
2011,05,29,01,13,10.90
2011,05,29,01,14,10.90
2011,05,29,01,15,10.90
2011,05,29,01,16,10.90
2011,05,29,01,17,10.90
2011,05,29,01,18,10.90
2011,05,29,01,19,10.90
2011,05,29,01,20,10.90
2011,05,29,01,21,10.90
2011,05,29,01,22,10.90
2011,05,29,01,23,11.10
2011,05,29,01,24,11.10
2011,05,29,01,25,11.10
2011,05,29,01,26,11.10
2011,05,29,01,27,11.10
2011,05,29,01,28,11.10
2011,05,29,01,29,11.10
2011,05,29,01,30,11.10
2011,05,29,01,31,11.10
2011,05,29,01,32,11.10
2011,05,29,01,33,11.10
2011,05,29,01,34,11.10
2011,05,29,01,35,11.10
2011,05,29,01,36,11.10
2011,05,29,01,37,11.10
2011,05,29,01,38,11.10
2011,05,29,01,39,11.10
2011,05,29,01,40,11.10
2011,05,29,01,41,11.10
2011,05,29,01,42,11.10
2011,05,29,01,43,11.10
2011,05,29,01,44,11.10
2011,05,29,01,45,11.10
2011,05,29,01,46,11.10
2011,05,29,01,47,11.10
2011,05,29,01,48,11.10
2011,05,29,01,49,11.10
2011,05,29,01,50,11.10
2011,05,29,01,51,11.10
2011,05,29,01,52,11.10
2011,05,29,01,53,11.10
2011,05,29,01,54,11.10
2011,05,29,01,55,11.10
2011,05,29,01,56,11.10
2011,05,29,01,57,10.90
2011,05,29,01,58,10.90
2011,05,29,01,59,10.90
2011,05,29,02,00,10.90
2011,05,29,02,01,11.00
2011,05,29,02,02,11.10
2011,05,29,02,03,11.10
2011,05,29,02,04,11.10
2011,05,29,02,05,11.10
2011,05,29,02,06,11.10
2011,05,29,02,07,11.10
2011,05,29,02,08,11.10
2011,05,29,02,09,11.10
2011,05,29,02,10,11.10
2011,05,29,02,11,11.10
2011,05,29,02,12,11.10
2011,05,29,02,13,11.10
2011,05,29,02,14,11.10
2011,05,29,02,15,11.10
2011,05,29,02,16,11.10
2011,05,29,02,17,11.10
2011,05,29,02,18,11.10
2011,05,29,02,19,11.10
2011,05,29,02,20,11.10
2011,05,29,02,21,11.10
2011,05,29,02,22,11.10
2011,05,29,02,23,11.10
2011,05,29,02,24,11.10
2011,05,29,02,25,11.10
2011,05,29,02,26,11.10
2011,05,29,02,27,11.10
2011,05,29,02,28,11.10
2011,05,29,02,29,11.10
2011,05,29,02,30,11.10
2011,05,29,02,31,11.10
2011,05,29,02,32,11.10
2011,05,29,02,33,11.10
2011,05,29,02,34,11.10
2011,05,29,02,35,11.10
2011,05,29,02,36,11.10
2011,05,29,02,37,11.10
2011,05,29,02,38,11.10
2011,05,29,02,39,11.10
2011,05,29,02,40,11.10
2011,05,29,02,41,11.10
2011,05,29,02,42,11.00
2011,05,29,02,43,10.90
2011,05,29,02,44,10.90
2011,05,29,02,45,10.90
2011,05,29,02,46,10.90
2011,05,29,02,47,10.90
2011,05,29,02,48,10.90
2011,05,29,02,49,10.90
2011,05,29,02,50,10.90
2011,05,29,02,51,10.90
2011,05,29,02,52,10.90
2011,05,29,02,53,10.90
2011,05,29,02,54,10.90
2011,05,29,02,55,10.90
2011,05,29,02,56,10.90
2011,05,29,02,57,10.90
2011,05,29,02,58,10.90
2011,05,29,02,59,10.90
2011,05,29,03,00,10.90
2011,05,29,03,01,10.80
2011,05,29,03,02,10.80
2011,05,29,03,03,10.80
2011,05,29,03,04,10.80
2011,05,29,03,05,10.80
2011,05,29,03,06,10.80
2011,05,29,03,07,10.80
2011,05,29,03,08,10.80
2011,05,29,03,09,10.80
2011,05,29,03,10,10.80
2011,05,29,03,11,10.80
2011,05,29,03,12,10.80
2011,05,29,03,13,10.80
2011,05,29,03,14,10.80
2011,05,29,03,15,10.80
2011,05,29,03,16,10.80
2011,05,29,03,17,10.80
2011,05,29,03,18,10.80
2011,05,29,03,19,10.80
2011,05,29,03,20,10.80
2011,05,29,03,21,10.80
2011,05,29,03,22,10.80
2011,05,29,03,23,10.80
2011,05,29,03,24,10.80
2011,05,29,03,25,10.80
2011,05,29,03,26,10.70
2011,05,29,03,27,10.70
2011,05,29,03,28,10.70
2011,05,29,03,29,10.60
2011,05,29,03,30,10.60
2011,05,29,03,31,10.60
2011,05,29,03,32,10.50
2011,05,29,03,33,10.40
2011,05,29,03,34,10.40
2011,05,29,03,35,10.40
2011,05,29,03,36,10.40
2011,05,29,03,37,10.30
2011,05,29,03,38,10.30
2011,05,29,03,39,10.20
2011,05,29,03,40,10.20
2011,05,29,03,41,10.10
2011,05,29,03,42,10.10
2011,05,29,03,43,10.10
2011,05,29,03,44,10.10
2011,05,29,03,45,10.10
2011,05,29,03,46,10.00
2011,05,29,03,47,9.90
2011,05,29,03,48,9.90
2011,05,29,03,49,9.90
2011,05,29,03,50,9.90
2011,05,29,03,51,9.90
2011,05,29,03,52,9.90
2011,05,29,03,53,9.90
2011,05,29,03,54,9.90
2011,05,29,03,55,9.90
2011,05,29,03,56,9.90
2011,05,29,03,57,9.90
2011,05,29,03,58,9.90
2011,05,29,03,59,9.90
2011,05,29,04,00,9.90
2011,05,29,04,01,9.90
2011,05,29,04,02,9.90
2011,05,29,04,03,9.90
2011,05,29,04,04,9.90
2011,05,29,04,05,9.90
2011,05,29,04,06,9.90
2011,05,29,04,07,9.90
2011,05,29,04,08,9.90
2011,05,29,04,09,9.80
2011,05,29,04,10,9.80
2011,05,29,04,11,9.80
2011,05,29,07,14,12.30
2011,05,29,07,15,12.30
2011,05,29,07,16,12.40
2011,05,29,07,17,12.40
2011,05,29,07,18,12.40
2011,05,29,07,19,12.40
2011,05,29,07,20,12.50
2011,05,29,07,21,12.50
2011,05,29,07,22,12.50
2011,05,29,07,23,12.50
2011,05,29,07,24,12.50
2011,05,29,07,25,12.60
2011,05,29,07,26,12.60
2011,05,29,07,27,12.70
2011,05,29,07,28,12.70
2011,05,29,07,29,12.70
2011,05,29,07,30,12.60
2011,05,29,07,31,12.60
2011,05,29,07,32,12.50
2011,05,29,07,33,12.50
2011,05,29,07,34,12.50
2011,05,29,07,35,12.40
2011,05,29,07,36,12.40
2011,05,29,07,37,12.40
2011,05,29,07,38,12.40
2011,05,29,07,39,12.30
2011,05,29,07,40,12.30
2011,05,29,07,41,12.30
2011,05,29,07,42,12.30
2011,05,29,07,43,12.30
2011,05,29,07,44,12.30
2011,05,29,07,45,12.30
2011,05,29,07,46,12.30
2011,05,29,07,47,12.30
2011,05,29,07,48,12.30
2011,05,29,07,49,12.30
2011,05,29,07,50,12.30
2011,05,29,07,51,12.30
2011,05,29,07,52,12.30
2011,05,29,07,53,12.40
2011,05,29,07,54,12.40
2011,05,29,07,55,12.40
2011,05,29,07,56,12.40
2011,05,29,07,57,12.40
2011,05,29,07,58,12.50
2011,05,29,07,59,12.50
2011,05,29,08,00,12.50
2011,05,29,08,01,12.60
2011,05,29,08,02,12.60
2011,05,29,08,03,12.60
2011,05,29,08,04,12.70
2011,05,29,08,05,12.70
2011,05,29,08,06,12.80
2011,05,29,08,07,12.80
2011,05,29,08,08,12.90
2011,05,29,08,09,13.00
2011,05,29,08,10,13.10
2011,05,29,08,11,13.20
2011,05,29,08,12,13.30
2011,05,29,08,13,13.30
2011,05,29,08,14,13.50
2011,05,29,08,15,13.50
2011,05,29,08,16,13.60
2011,05,29,08,17,13.70
2011,05,29,08,18,13.80
2011,05,29,08,19,13.90
2011,05,29,08,20,14.00
2011,05,29,08,21,14.10
2011,05,29,08,22,14.20
2011,05,29,08,23,14.40
2011,05,29,08,24,14.50
2011,05,29,08,25,14.50
2011,05,29,08,26,14.60
2011,05,29,08,27,14.60
2011,05,29,08,28,14.70
2011,05,29,08,29,14.70
2011,05,29,08,30,14.80
2011,05,29,08,31,14.80
2011,05,29,08,32,14.80
2011,05,29,08,33,14.80
2011,05,29,08,34,14.90
2011,05,29,08,35,14.90
2011,05,29,08,36,14.90
2011,05,29,08,37,14.90
2011,05,29,08,38,15.00
2011,05,29,08,39,15.00
2011,05,29,08,40,15.00
2011,05,29,08,41,15.00
2011,05,29,08,42,15.00
2011,05,29,08,43,14.90
2011,05,29,08,44,14.80
2011,05,29,08,45,14.80
2011,05,29,08,46,14.70
2011,05,29,08,47,14.60
2011,05,29,08,48,14.60
2011,05,29,08,49,14.50
2011,05,29,08,50,14.40
2011,05,29,08,51,14.20
2011,05,29,08,52,14.10
2011,05,29,08,53,14.00
2011,05,29,08,54,13.90
2011,05,29,08,55,13.80
2011,05,29,08,56,13.70
2011,05,29,08,57,13.70
2011,05,29,08,58,13.70
2011,05,29,08,59,13.60
2011,05,29,09,00,13.50
2011,05,29,09,01,13.50
2011,05,29,09,02,13.50
2011,05,29,09,03,13.60
2011,05,29,09,04,13.60
2011,05,29,09,05,13.70
2011,05,29,09,06,13.80
2011,05,29,09,07,13.90
2011,05,29,09,08,13.90
2011,05,29,09,09,14.00
2011,05,29,09,10,14.10
2011,05,29,09,11,14.20
2011,05,29,09,12,14.20
2011,05,29,09,13,14.30
2011,05,29,09,14,14.40
2011,05,29,09,15,14.40
2011,05,29,09,16,14.40
2011,05,29,09,17,14.40
2011,05,29,09,18,14.40
2011,05,29,09,19,14.30
2011,05,29,09,20,14.30
2011,05,29,09,21,14.20
2011,05,29,09,22,14.30
2011,05,29,09,23,14.30
2011,05,29,09,24,14.30
2011,05,29,09,25,14.20
2011,05,29,09,26,14.20
2011,05,29,09,27,14.30
2011,05,29,09,28,14.30
2011,05,29,09,29,14.40
2011,05,29,09,30,14.50
2011,05,29,09,31,14.60
2011,05,29,09,32,14.70
2011,05,29,09,33,14.80
2011,05,29,09,34,14.80
2011,05,29,09,35,14.80
2011,05,29,09,36,14.80
2011,05,29,09,37,14.70
2011,05,29,09,38,14.60
2011,05,29,09,39,14.60
2011,05,29,09,40,14.50
2011,05,29,09,41,14.50
2011,05,29,09,42,14.50
2011,05,29,09,43,14.50
2011,05,29,09,44,14.60
2011,05,29,09,45,14.60
2011,05,29,09,46,14.70
2011,05,29,09,47,14.80
2011,05,29,09,48,14.80
2011,05,29,09,49,14.70
2011,05,29,09,50,14.60
2011,05,29,09,51,14.50
2011,05,29,09,52,14.40
2011,05,29,09,53,14.40
2011,05,29,09,54,14.30
2011,05,29,09,55,14.20
2011,05,29,09,56,14.20
2011,05,29,09,57,14.20
2011,05,29,09,58,14.20
2011,05,29,09,59,14.10
2011,05,29,10,00,14.00
2011,05,29,10,01,13.90
2011,05,29,10,02,13.90
2011,05,29,10,03,13.90
2011,05,29,10,04,13.90
2011,05,29,10,05,14.00
2011,05,29,10,06,14.00
2011,05,29,10,07,13.90
2011,05,29,10,08,14.00
2011,05,29,10,09,14.00
2011,05,29,10,10,14.00
2011,05,29,10,11,14.00
2011,05,29,10,12,14.10
2011,05,29,10,13,14.10
2011,05,29,10,14,14.20
2011,05,29,10,15,14.30
2011,05,29,10,16,14.40
2011,05,29,10,17,14.40
2011,05,29,10,18,14.40
2011,05,29,10,19,14.30
2011,05,29,10,20,14.30
2011,05,29,10,21,14.30
2011,05,29,10,22,14.30
2011,05,29,10,23,14.20
2011,05,29,10,24,14.30
2011,05,29,10,25,14.30
2011,05,29,10,26,14.30
2011,05,29,10,27,14.30
2011,05,29,10,28,14.30
2011,05,29,10,29,14.10
2011,05,29,10,30,14.00
2011,05,29,10,31,13.80
2011,05,29,10,32,13.70
2011,05,29,10,33,13.70
2011,05,29,10,34,13.70
2011,05,29,10,35,13.80
2011,05,29,10,36,13.90
2011,05,29,10,37,14.00
2011,05,29,10,38,14.10
2011,05,29,10,39,14.10
2011,05,29,10,40,14.20
2011,05,29,10,41,14.20
2011,05,29,10,42,14.20
2011,05,29,10,43,14.10
2011,05,29,10,44,13.90
2011,05,29,10,45,13.90
2011,05,29,10,46,14.00
2011,05,29,10,47,14.10
2011,05,29,10,48,14.10
2011,05,29,10,49,14.00
2011,05,29,10,50,13.90
2011,05,29,10,51,13.80
2011,05,29,10,52,13.80
2011,05,29,10,53,13.80
2011,05,29,10,54,13.70
2011,05,29,10,55,13.70
2011,05,29,10,56,13.60
2011,05,29,10,57,13.40
2011,05,29,10,58,13.50
2011,05,29,10,59,13.60
2011,05,29,11,00,13.70
2011,05,29,11,01,13.80
2011,05,29,11,02,13.90
2011,05,29,11,03,13.90
2011,05,29,11,04,13.90
2011,05,29,11,05,14.00
2011,05,29,11,06,14.10
2011,05,29,11,07,14.10
2011,05,29,11,08,14.10
2011,05,29,11,09,14.10
2011,05,29,11,10,14.10
2011,05,29,11,11,14.20
2011,05,29,11,12,14.20
2011,05,29,11,13,14.20
2011,05,29,11,14,14.30
2011,05,29,11,15,14.20
2011,05,29,11,16,14.20
2011,05,29,11,17,14.20
2011,05,29,11,18,14.20
2011,05,29,11,19,14.10
2011,05,29,11,20,14.10
2011,05,29,11,21,14.10
2011,05,29,11,22,14.20
2011,05,29,11,23,14.20
2011,05,29,11,24,14.00
2011,05,29,11,25,14.00
2011,05,29,11,26,14.00
2011,05,29,11,27,13.90
2011,05,29,11,28,13.80
2011,05,29,11,29,13.80
2011,05,29,11,30,13.80
2011,05,29,11,31,13.70
2011,05,29,11,32,13.70
2011,05,29,11,33,13.70
2011,05,29,11,34,13.80
2011,05,29,11,35,13.90
2011,05,29,11,36,14.00
2011,05,29,11,37,14.10
2011,05,29,11,38,14.20
2011,05,29,11,39,14.30
2011,05,29,11,40,14.40
2011,05,29,11,41,14.40
2011,05,29,11,42,14.40
2011,05,29,11,43,14.40
2011,05,29,11,44,14.30
2011,05,29,11,45,14.30
2011,05,29,11,46,14.30
2011,05,29,11,47,14.20
2011,05,29,11,48,14.20
2011,05,29,11,49,14.20
2011,05,29,11,50,14.20
2011,05,29,11,51,14.10
2011,05,29,11,52,14.10
2011,05,29,11,53,14.10
2011,05,29,11,54,14.10
2011,05,29,11,55,14.20
2011,05,29,11,56,14.20
2011,05,29,11,57,14.10
2011,05,29,11,58,14.20
2011,05,29,11,59,14.20
2011,05,29,12,00,14.20
2011,05,29,12,01,14.20
2011,05,29,12,02,14.20
2011,05,29,12,03,14.20
2011,05,29,12,04,14.20
2011,05,29,12,05,14.20
2011,05,29,12,06,14.20
2011,05,29,12,07,14.20
2011,05,29,12,08,14.20
2011,05,29,12,09,14.10
2011,05,29,12,10,14.20
2011,05,29,12,11,14.20
2011,05,29,12,12,14.20
2011,05,29,12,13,14.20
2011,05,29,12,14,14.20
2011,05,29,12,15,14.20
2011,05,29,12,16,14.10
2011,05,29,12,17,14.10
2011,05,29,12,18,14.10
2011,05,29,12,19,14.10
2011,05,29,12,20,14.20
2011,05,29,12,21,14.30
2011,05,29,12,22,14.30
2011,05,29,12,23,14.40
2011,05,29,12,24,14.50
2011,05,29,12,25,14.60
2011,05,29,12,26,14.60
2011,05,29,12,27,14.60
2011,05,29,12,28,14.40
2011,05,29,12,29,14.30
2011,05,29,12,30,14.20
2011,05,29,12,31,14.20
2011,05,29,12,32,14.20
2011,05,29,12,33,14.20
2011,05,29,12,34,14.20
2011,05,29,12,35,14.20
2011,05,29,12,36,14.20
2011,05,29,12,37,14.20
2011,05,29,12,38,14.20
2011,05,29,12,39,14.20
2011,05,29,12,40,14.20
2011,05,29,12,41,14.10
2011,05,29,12,42,14.00
2011,05,29,12,43,14.00
2011,05,29,12,44,14.10
2011,05,29,12,45,14.10
2011,05,29,12,46,14.00
2011,05,29,12,47,14.00
2011,05,29,12,48,14.10
2011,05,29,12,49,14.10
2011,05,29,12,50,14.10
2011,05,29,12,51,14.00
2011,05,29,12,52,14.00
2011,05,29,12,53,14.00
2011,05,29,12,54,14.00
2011,05,29,12,55,14.00
2011,05,29,12,56,14.20
2011,05,29,12,57,14.30
2011,05,29,12,58,14.50
2011,05,29,12,59,14.60
2011,05,29,13,00,14.70
2011,05,29,13,01,14.80
2011,05,29,13,02,14.80
2011,05,29,13,03,14.90
2011,05,29,13,04,14.90
2011,05,29,13,05,14.90
2011,05,29,13,06,14.90
2011,05,29,13,07,15.00
2011,05,29,13,08,15.10
2011,05,29,13,09,15.10
2011,05,29,13,10,15.10
2011,05,29,13,11,15.00
2011,05,29,13,12,14.90
2011,05,29,13,13,14.80
2011,05,29,13,14,14.80
2011,05,29,13,15,14.80
2011,05,29,13,16,14.60
2011,05,29,13,17,14.50
2011,05,29,13,18,14.50
2011,05,29,13,19,14.50
2011,05,29,13,20,14.40
2011,05,29,13,21,14.40
2011,05,29,13,22,14.30
2011,05,29,13,23,14.30
2011,05,29,13,24,14.30
2011,05,29,13,25,14.30
2011,05,29,13,26,14.30
2011,05,29,13,27,14.40
2011,05,29,13,28,14.50
2011,05,29,13,29,14.60
2011,05,29,13,30,14.70
2011,05,29,13,31,14.70
2011,05,29,13,32,14.70
2011,05,29,13,33,14.50
2011,05,29,13,34,14.50
2011,05,29,13,35,14.50
2011,05,29,13,36,14.50
2011,05,29,13,37,14.40
2011,05,29,13,38,14.40
2011,05,29,13,39,14.40
2011,05,29,13,40,14.50
2011,05,29,13,41,14.70
2011,05,29,13,42,14.80
2011,05,29,13,43,14.80
2011,05,29,13,44,14.80
2011,05,29,13,45,14.80
2011,05,29,13,46,14.60
2011,05,29,13,47,14.60
2011,05,29,13,48,14.50
2011,05,29,13,49,14.60
2011,05,29,13,50,14.50
2011,05,29,13,51,14.50
2011,05,29,13,52,14.60
2011,05,29,13,53,14.70
2011,05,29,13,54,14.70
2011,05,29,13,55,14.80
2011,05,29,13,56,14.90
2011,05,29,13,57,15.00
2011,05,29,13,58,15.10
2011,05,29,13,59,15.00
2011,05,29,14,00,15.00
2011,05,29,14,01,15.10
2011,05,29,14,02,15.10
2011,05,29,14,03,15.10
2011,05,29,14,04,15.10
2011,05,29,14,05,15.20
2011,05,29,14,06,15.20
2011,05,29,14,07,15.20
2011,05,29,14,08,15.10
2011,05,29,14,09,15.00
2011,05,29,14,10,15.10
2011,05,29,14,11,15.20
2011,05,29,14,12,15.30
2011,05,29,14,13,15.30
2011,05,29,14,14,15.30
2011,05,29,14,15,15.30
2011,05,29,14,16,15.30
2011,05,29,14,17,15.40
2011,05,29,14,18,15.40
2011,05,29,14,19,15.50
2011,05,29,14,20,15.50
2011,05,29,14,21,15.50
2011,05,29,14,22,15.60
2011,05,29,14,23,15.60
2011,05,29,14,24,15.60
2011,05,29,14,25,15.70
2011,05,29,14,26,15.80
2011,05,29,14,27,16.00
2011,05,29,14,28,16.20
2011,05,29,14,29,16.30
2011,05,29,14,30,16.30
2011,05,29,14,31,16.50
2011,05,29,14,32,16.60
2011,05,29,14,33,16.70
2011,05,29,14,34,16.60
2011,05,29,14,35,16.70
2011,05,29,14,36,16.70
2011,05,29,14,37,16.90
2011,05,29,14,38,16.90
2011,05,29,14,39,17.10
2011,05,29,14,40,17.20
2011,05,29,14,41,17.30
2011,05,29,14,42,17.20
2011,05,29,14,43,17.20
2011,05,29,14,44,17.30
2011,05,29,14,45,17.20
2011,05,29,14,46,17.20
2011,05,29,14,47,17.20
2011,05,29,14,48,17.10
2011,05,29,14,49,17.20
2011,05,29,14,50,17.20
2011,05,29,14,51,17.20
2011,05,29,14,52,17.10
2011,05,29,14,53,17.00
2011,05,29,14,54,16.90
2011,05,29,14,55,16.90
2011,05,29,14,56,17.00
2011,05,29,14,57,17.10
2011,05,29,14,58,17.10
2011,05,29,14,59,17.10
2011,05,29,15,00,17.10
2011,05,29,15,01,17.10
2011,05,29,15,02,17.10
2011,05,29,15,03,17.20
2011,05,29,15,04,17.30
2011,05,29,15,05,17.30
2011,05,29,15,06,17.30
2011,05,29,15,07,17.30
2011,05,29,15,08,17.30
2011,05,29,15,09,17.30
2011,05,29,15,10,17.40
2011,05,29,15,11,17.50
2011,05,29,15,12,17.60
2011,05,29,15,13,17.70
2011,05,29,15,14,17.80
2011,05,29,15,15,17.90
2011,05,29,15,16,17.90
2011,05,29,15,17,17.90
2011,05,29,15,18,17.90
2011,05,29,15,19,17.80
2011,05,29,15,20,17.60
2011,05,29,15,21,17.30
2011,05,29,15,22,17.10
2011,05,29,15,23,17.10
2011,05,29,15,24,17.10
2011,05,29,15,25,17.00
2011,05,29,15,26,17.10
2011,05,29,15,27,17.10
2011,05,29,15,28,17.20
2011,05,29,15,29,17.30
2011,05,29,15,30,17.30
2011,05,29,15,31,17.30
2011,05,29,15,32,17.30
2011,05,29,15,33,17.30
2011,05,29,15,34,17.30
2011,05,29,15,35,17.30
2011,05,29,15,36,17.40
2011,05,29,15,37,17.50
2011,05,29,15,38,17.60
2011,05,29,15,39,17.60
2011,05,29,15,40,17.60
2011,05,29,15,41,17.70
2011,05,29,15,42,17.70
2011,05,29,15,43,17.70
2011,05,29,15,44,17.60
2011,05,29,15,45,17.50
2011,05,29,15,46,17.60
2011,05,29,15,47,17.60
2011,05,29,15,48,17.70
2011,05,29,15,49,17.70
2011,05,29,15,50,17.60
2011,05,29,15,51,17.50
2011,05,29,15,52,17.40
2011,05,29,15,53,17.30
2011,05,29,15,54,17.30
2011,05,29,15,55,17.30
2011,05,29,15,56,17.30
2011,05,29,15,57,17.30
2011,05,29,15,58,17.20
2011,05,29,15,59,17.10
2011,05,29,16,00,17.10
2011,05,29,16,01,17.00
2011,05,29,16,02,16.90
2011,05,29,16,03,16.80
2011,05,29,16,04,16.90
2011,05,29,16,05,17.00
2011,05,29,16,06,17.00
2011,05,29,16,07,17.10
2011,05,29,16,08,17.10
2011,05,29,16,09,17.00
2011,05,29,16,10,16.90
2011,05,29,16,11,17.00
2011,05,29,16,12,17.00
2011,05,29,16,13,17.20
2011,05,29,16,14,17.20
2011,05,29,16,15,17.10
2011,05,29,16,16,17.10
2011,05,29,16,17,17.10
2011,05,29,16,18,17.00
2011,05,29,16,19,17.10
2011,05,29,16,20,17.10
2011,05,29,16,21,17.10
2011,05,29,16,22,17.20
2011,05,29,16,23,17.20
2011,05,29,16,24,17.30
2011,05,29,16,25,17.30
2011,05,29,16,26,17.40
2011,05,29,16,27,17.50
2011,05,29,16,28,17.50
2011,05,29,16,29,17.60
2011,05,29,16,30,17.60
2011,05,29,16,31,17.60
2011,05,29,16,32,17.70
2011,05,29,16,33,17.60
2011,05,29,16,34,17.60
2011,05,29,16,35,17.70
2011,05,29,16,36,17.70
2011,05,29,16,37,17.70
2011,05,29,16,38,17.60
2011,05,29,16,39,17.50
2011,05,29,16,40,17.40
2011,05,29,16,41,17.30
2011,05,29,16,42,17.30
2011,05,29,16,43,17.30
2011,05,29,16,44,17.30
2011,05,29,16,45,17.30
2011,05,29,16,46,17.40
2011,05,29,16,47,17.40
2011,05,29,16,48,17.50
2011,05,29,16,49,17.50
2011,05,29,16,50,17.50
2011,05,29,16,51,17.50
2011,05,29,16,52,17.50
2011,05,29,16,53,17.40
2011,05,29,16,54,17.30
2011,05,29,16,55,17.10
2011,05,29,16,56,17.00
2011,05,29,16,57,17.00
2011,05,29,16,58,17.00
2011,05,29,16,59,16.90
2011,05,29,17,00,17.00
2011,05,29,17,01,17.00
2011,05,29,17,02,16.90
2011,05,29,17,03,16.90
2011,05,29,17,04,16.90
2011,05,29,17,05,16.90
2011,05,29,17,06,16.90
2011,05,29,17,07,16.80
2011,05,29,17,08,16.90
2011,05,29,17,09,16.90
2011,05,29,17,10,16.80
2011,05,29,17,11,16.80
2011,05,29,17,12,16.80
2011,05,29,17,13,16.80
2011,05,29,17,14,16.80
2011,05,29,17,15,16.80
2011,05,29,17,16,16.80
2011,05,29,17,17,16.80
2011,05,29,17,18,16.70
2011,05,29,17,19,16.70
2011,05,29,17,20,16.70
2011,05,29,17,21,16.70
2011,05,29,17,22,16.70
2011,05,29,17,23,16.60
2011,05,29,17,24,16.50
2011,05,29,17,25,16.40
2011,05,29,17,26,16.30
2011,05,29,17,27,16.20
2011,05,29,17,28,16.10
2011,05,29,17,29,16.10
2011,05,29,17,30,16.10
2011,05,29,17,31,16.10
2011,05,29,17,32,16.00
2011,05,29,17,33,16.10
2011,05,29,17,34,15.90
2011,05,29,17,35,15.80
2011,05,29,17,36,15.80
2011,05,29,17,37,15.80
2011,05,29,17,38,15.80
2011,05,29,17,39,15.80
2011,05,29,17,40,15.80
2011,05,29,17,41,15.80
2011,05,29,17,42,15.70
2011,05,29,17,43,15.60
2011,05,29,17,44,15.50
2011,05,29,17,45,15.50
2011,05,29,17,46,15.50
2011,05,29,17,47,15.50
2011,05,29,17,48,15.50
2011,05,29,17,49,15.50
2011,05,29,17,50,15.40
2011,05,29,17,51,15.40
2011,05,29,17,52,15.40
2011,05,29,17,53,15.50
2011,05,29,17,54,15.50
2011,05,29,17,55,15.50
2011,05,29,17,56,15.50
2011,05,29,17,57,15.40
2011,05,29,17,58,15.40
2011,05,29,17,59,15.30
2011,05,29,18,00,15.30
2011,05,29,18,01,15.30
2011,05,29,18,02,15.30
2011,05,29,18,03,15.30
2011,05,29,18,04,15.20
2011,05,29,18,05,15.30
2011,05,29,18,06,15.20
2011,05,29,18,07,15.20
2011,05,29,18,08,15.20
2011,05,29,18,09,15.20
2011,05,29,18,10,15.10
2011,05,29,18,11,15.20
2011,05,29,18,12,15.20
2011,05,29,18,13,15.20
2011,05,29,18,14,15.20
2011,05,29,18,15,15.20
2011,05,29,18,16,15.30
2011,05,29,18,17,15.30
2011,05,29,18,18,15.30
2011,05,29,18,19,15.30
2011,05,29,18,20,15.30
2011,05,29,18,21,15.30
2011,05,29,18,22,15.30
2011,05,29,18,23,15.30
2011,05,29,18,24,15.30
2011,05,29,18,25,15.30
2011,05,29,18,26,15.30
2011,05,29,18,27,15.30
2011,05,29,18,28,15.30
2011,05,29,18,29,15.30
2011,05,29,18,30,15.30
2011,05,29,18,31,15.30
2011,05,29,18,32,15.30
2011,05,29,18,33,15.30
2011,05,29,18,34,15.30
2011,05,29,18,35,15.30
2011,05,29,18,36,15.30
2011,05,29,18,37,15.30
2011,05,29,18,38,15.20
2011,05,29,18,39,15.20
2011,05,29,18,40,15.10
2011,05,29,18,41,15.10
2011,05,29,18,42,15.10
2011,05,29,18,43,15.10
2011,05,29,18,44,15.00
2011,05,29,18,45,15.00
2011,05,29,18,46,15.00
2011,05,29,18,47,15.00
2011,05,29,18,48,15.00
2011,05,29,18,49,15.00
2011,05,29,18,50,15.00
2011,05,29,18,51,15.00
2011,05,29,18,52,14.90
2011,05,29,18,53,14.90
2011,05,29,18,54,14.90
2011,05,29,18,55,14.90
2011,05,29,18,56,14.90
2011,05,29,18,57,14.90
2011,05,29,18,58,14.90
2011,05,29,18,59,14.80
2011,05,29,19,00,14.80
2011,05,29,19,01,14.80
2011,05,29,19,02,14.80
2011,05,29,19,03,14.80
2011,05,29,19,04,14.80
2011,05,29,19,05,14.80
2011,05,29,19,06,14.80
2011,05,29,19,07,14.80
2011,05,29,19,08,14.70
2011,05,29,19,09,14.70
2011,05,29,19,10,14.70
2011,05,29,19,11,14.70
2011,05,29,19,12,14.60
2011,05,29,19,13,14.60
2011,05,29,19,14,14.60
2011,05,29,19,15,14.60
2011,05,29,19,16,14.60
2011,05,29,19,17,14.60
2011,05,29,19,18,14.60
2011,05,29,19,19,14.60
2011,05,29,19,20,14.60
2011,05,29,19,21,14.60
2011,05,29,19,22,14.60
2011,05,29,19,23,14.60
2011,05,29,19,24,14.60
2011,05,29,19,25,14.60
2011,05,29,19,26,14.60
2011,05,29,19,27,14.50
2011,05,29,19,28,14.50
2011,05,29,19,29,14.50
2011,05,29,19,30,14.50
2011,05,29,19,31,14.40
2011,05,29,19,32,14.40
2011,05,29,19,33,14.40
2011,05,29,19,34,14.40
2011,05,29,19,35,14.40
2011,05,29,19,36,14.40
2011,05,29,19,37,14.40
2011,05,29,19,38,14.40
2011,05,29,19,39,14.40
2011,05,29,19,40,14.40
2011,05,29,19,41,14.40
2011,05,29,19,42,14.40
2011,05,29,19,43,14.40
2011,05,29,19,44,14.30
2011,05,29,19,45,14.30
2011,05,29,19,46,14.20
2011,05,29,19,47,14.20
2011,05,29,19,48,14.20
2011,05,29,19,49,14.20
2011,05,29,19,50,14.20
2011,05,29,19,51,14.20
2011,05,29,19,52,14.20
2011,05,29,19,53,14.20
2011,05,29,19,54,14.20
2011,05,29,19,55,14.20
2011,05,29,19,56,14.20
2011,05,29,19,57,14.20
2011,05,29,19,58,14.20
2011,05,29,19,59,14.20
2011,05,29,20,00,14.10
2011,05,29,20,01,14.10
2011,05,29,20,02,14.10
2011,05,29,20,03,14.10
2011,05,29,20,04,14.10
2011,05,29,20,05,14.20
2011,05,29,20,06,14.10
2011,05,29,20,07,14.10
2011,05,29,20,08,14.10
2011,05,29,20,09,14.10
2011,05,29,20,10,14.10
2011,05,29,20,11,14.10
2011,05,29,20,12,14.10
2011,05,29,20,13,14.10
2011,05,29,20,14,14.10
2011,05,29,20,15,14.00
2011,05,29,20,16,14.00
2011,05,29,20,17,14.00
2011,05,29,20,18,14.00
2011,05,29,20,19,14.00
2011,05,29,20,20,13.90
2011,05,29,20,21,13.90
2011,05,29,20,22,13.80